Weather History for Ashtabula, OH

Change the Weather History Date:

Thursday, October 11, 2012

  Actual Average (KYNG) Record (KYNG)
Temperature  
Mean Temperature 44 °F 52 °F  
Max Temperature 55 °F 62 °F 84 °F (1939)
Min Temperature 32 °F 43 °F 27 °F (1964)
Degree Days  
Heating Degree Days 22 13  
Month to date heating degree days 125  
Since 1 July heating degree days 308  
Cooling Degree Days 0 0  
Month to date cooling degree days 3  
Year to date cooling degree days 541  
Moisture  
Dew Point 29 °F    
Average Humidity 54    
Maximum Humidity 85    
Minimum Humidity 37    
Precipitation  
Precipitation 0.00 in 0.09 in 0.87 in (2006)
Month to date precipitation 1.06  
Year to date precipitation 31.03  
Snow  
Snow 0.00 in 0.00 in - ()
Month to date snowfall 0.1  
Since 1 July snowfall 0.1  
Since 1 September snowfall 0.1  
Snow Depth -    
Sea Level Pressure  
Sea Level Pressure 30.19 in    
Wind  
Wind Speed 9 mph (SW)    
Max Wind Speed 16 mph    
Max Gust Speed 26 mph    
Visibility 10 miles    
Events      
T = Trace of Precipitation, MM = Missing Value Source: NWS Daily Summary

Daily Weather History Graph

Daily Weather History Graph

Search for Another Location

Airport:

Trip Planner

Search our weather history database for the weather conditions in past years. The results will help you decide how hot, cold, wet, or windy it might be!

Date:

Astronomy

Oct. 11, 2012 Rise Set
Actual Time 7:31 AM EDT 6:46 PM EDT
Civil Twilight 7:03 AM EDT 7:14 PM EDT
Nautical Twilight 6:30 AM EDT 7:47 PM EDT
Astronomical Twilight 5:58 AM EDT 8:19 PM EDT
Moon 3:04 AM EDT (10/11) 4:25 PM EDT (10/11)
Length of Visible Light 12h 11m
Length of Day
11h 15m
Waning Crescent, 18% of the Moon is Illuminated
Oct 11
Waning Crescent
Oct 15
New
Oct 21
First Quarter
Oct 29
Full
Nov 6
Last Quarter

Hourly Weather History & Observations

Time (EDT) Temp. Windchill Dew Point Humidity Pressure Visibility Wind Dir Wind Speed Gust Speed Precip Events Conditions
12:53 AM 44.1 °F 39.0 °F 27.0 °F 51% 30.16 in 10.0 mi WNW 9.2 mph 23.0 mph N/A   Overcast
1:53 AM 43.0 °F 36.4 °F 25.0 °F 49% 30.18 in 10.0 mi NW 12.7 mph 18.4 mph N/A   Overcast
2:53 AM 41.0 °F 36.4 °F 24.1 °F 51% 30.19 in 10.0 mi WNW 6.9 mph - N/A   Partly Cloudy
3:53 AM 41.0 °F 37.1 °F 24.1 °F 51% 30.19 in 10.0 mi WNW 5.8 mph - N/A   Clear
4:53 AM 37.0 °F 34.5 °F 26.1 °F 65% 30.20 in 10.0 mi West 3.5 mph - N/A   Partly Cloudy
5:53 AM 32.0 °F 27.5 °F 28.0 °F 85% 30.24 in 10.0 mi SSW 4.6 mph - N/A   Scattered Clouds
6:53 AM 35.1 °F - 28.0 °F 76% 30.25 in 10.0 mi Calm Calm - N/A   Scattered Clouds
7:53 AM 35.1 °F 30.1 °F 30.0 °F 82% 30.25 in 10.0 mi SSW 5.8 mph - N/A   Mostly Cloudy
8:53 AM 39.9 °F 34.5 °F 30.9 °F 70% 30.26 in 10.0 mi SSW 8.1 mph - N/A   Scattered Clouds
9:53 AM 43.0 °F 37.2 °F 30.9 °F 62% 30.27 in 10.0 mi SW 10.4 mph - N/A   Overcast
10:53 AM 48.0 °F - 30.9 °F 52% 30.25 in 10.0 mi SW 12.7 mph 19.6 mph N/A   Clear
11:53 AM 50.0 °F - 28.0 °F 43% 30.23 in 10.0 mi SW 16.1 mph 24.2 mph N/A   Clear
12:53 PM 52.0 °F - 28.9 °F 41% 30.22 in 10.0 mi WSW 13.8 mph 23.0 mph N/A   Clear
1:53 PM 54.0 °F - 28.9 °F 38% 30.17 in 10.0 mi SW 12.7 mph 26.5 mph N/A   Clear
2:53 PM 55.0 °F - 28.9 °F 37% 30.15 in 10.0 mi SW 12.7 mph 23.0 mph N/A   Clear
3:53 PM 55.0 °F - 28.9 °F 37% 30.14 in 10.0 mi WSW 12.7 mph 20.7 mph N/A   Clear
4:53 PM 55.0 °F - 28.9 °F 37% 30.12 in 10.0 mi SSW 16.1 mph 21.9 mph N/A   Clear
6:53 PM 50.0 °F - 30.0 °F 46% 30.12 in 10.0 mi SSW 6.9 mph - N/A   Clear
7:53 PM 48.0 °F - 30.0 °F 50% 30.13 in 10.0 mi SSW 6.9 mph - N/A   Clear
9:53 PM 46.9 °F - 30.9 °F 54% 30.13 in 10.0 mi SSW 8.1 mph - N/A   Clear
11:53 PM 48.9 °F - 30.9 °F 50% 30.12 in 10.0 mi SW 9.2 mph - N/A   Overcast